• en France
  • Liste des pays
  • À 7 jours
  • Température de l'eau
  • Carte satellitaire
  • Carte météo
  • Widgets météo
  • user-avatar
    Se connecter

    Météo par heure à Bucaramanga

    Ce jour, 18 Février, Dimanche

    Heure Température Précipitation Vent Pression Humidité
    00:00 +24°C° 0,1 mm 1 m/s 673 mmHg 71%
    01:00 +23°C° 0,1 mm 1 m/s 673 mmHg 71%
    02:00 +23°C° 0,1 mm 1 m/s 673 mmHg 73%
    03:00 +23°C° 0,1 mm 1 m/s 673 mmHg 74%
    04:00 +20°C° 0,1 mm 0 m/s 672 mmHg 75%
    05:00 +22°C° 0,1 mm 1 m/s 673 mmHg 76%
    06:00 +23°C° 0,1 mm 1 m/s 673 mmHg 76%
    07:00 +23°C° 0,1 mm 1 m/s 673 mmHg 76%
    08:00 +24°C° 0,1 mm 1 m/s 674 mmHg 70%
    09:00 +26°C° 0,1 mm 1 m/s 675 mmHg 65%
    10:00 +28°C° 0,1 mm 1 m/s 675 mmHg 59%
    11:00 +29°C° 0,1 mm 1 m/s 675 mmHg 57%
    12:00 +29°C° 0,1 mm 2 m/s 674 mmHg 56%
    13:00 +30°C° 0,1 mm 2 m/s 673 mmHg 54%
    14:00 +30°C° 0,1 mm 2 m/s 673 mmHg 53%
    15:00 +30°C° 0,1 mm 2 m/s 672 mmHg 52%
    16:00 +30°C° 0,1 mm 2 m/s 672 mmHg 51%
    17:00 +28°C° 0,1 mm 1 m/s 671 mmHg 57%
    18:00 +26°C° 0,1 mm 1 m/s 671 mmHg 62%
    19:00 +24°C° 0,1 mm 1 m/s 671 mmHg 68%
    20:00 +24°C° 0 mm 1 m/s 672 mmHg 69%
    21:00 +24°C° 0 mm 1 m/s 672 mmHg 69%
    22:00 +23°C° 0 mm 1 m/s 673 mmHg 70%
    23:00 +23°C° 0 mm 1 m/s 673 mmHg 70%

    Demain, 19 Février, Lundi

    Heure Température Précipitation Vent Pression Humidité
    00:00 +23°C° 0 mm 1 m/s 672 mmHg 71%
    01:00 +22°C° 0 mm 1 m/s 672 mmHg 71%
    02:00 +22°C° 0 mm 1 m/s 672 mmHg 72%
    03:00 +22°C° 0 mm 1 m/s 672 mmHg 72%
    04:00 +21°C° 0 mm 1 m/s 672 mmHg 73%
    05:00 +22°C° 0 mm 1 m/s 672 mmHg 72%
    06:00 +22°C° 0 mm 1 m/s 673 mmHg 72%
    07:00 +22°C° 0 mm 1 m/s 673 mmHg 71%
    08:00 +24°C° 0 mm 1 m/s 674 mmHg 64%
    09:00 +26°C° 0 mm 1 m/s 674 mmHg 58%
    10:00 +29°C° 0 mm 1 m/s 675 mmHg 51%
    11:00 +29°C° 0 mm 2 m/s 674 mmHg 50%
    12:00 +30°C° 0 mm 2 m/s 674 mmHg 49%
    13:00 +30°C° 0 mm 2 m/s 673 mmHg 49%
    14:00 +30°C° 0 mm 2 m/s 672 mmHg 50%
    15:00 +29°C° 0 mm 2 m/s 672 mmHg 52%
    16:00 +29°C° 0 mm 2 m/s 671 mmHg 53%
    17:00 +27°C° 0 mm 1 m/s 671 mmHg 58%
    18:00 +26°C° 0 mm 1 m/s 671 mmHg 63%
    19:00 +24°C° 0 mm 1 m/s 671 mmHg 68%
    20:00 +24°C° 0 mm 1 m/s 672 mmHg 68%
    21:00 +23°C° 0 mm 1 m/s 672 mmHg 69%
    22:00 +23°C° 0 mm 1 m/s 673 mmHg 69%
    23:00 +22°C° 0 mm 1 m/s 672 mmHg 68%

    Après-demain, 20 Février, Mardi

    Heure Température Précipitation Vent Pression Humidité
    00:00 +22°C° 0 mm 1 m/s 672 mmHg 66%
    01:00 +21°C° 0 mm 1 m/s 672 mmHg 65%
    02:00 +21°C° 0 mm 1 m/s 672 mmHg 61%
    03:00 +21°C° 0 mm 1 m/s 672 mmHg 57%
    04:00 +20°C° 0 mm 1 m/s 672 mmHg 54%
    05:00 +21°C° 0 mm 1 m/s 672 mmHg 51%
    06:00 +21°C° 0 mm 1 m/s 673 mmHg 48%
    07:00 +21°C° 0 mm 1 m/s 673 mmHg 46%
    08:00 +24°C° 0 mm 1 m/s 674 mmHg 41%
    09:00 +27°C° 0 mm 1 m/s 675 mmHg 37%
    10:00 +30°C° 0 mm 1 m/s 676 mmHg 33%
    11:00 +31°C° 0 mm 2 m/s 675 mmHg 32%
    12:00 +32°C° 0 mm 2 m/s 675 mmHg 30%
    13:00 +34°C° 0 mm 2 m/s 674 mmHg 29%
    14:00 +34°C° 0 mm 2 m/s 673 mmHg 30%
    15:00 +32°C° 0 mm 2 m/s 673 mmHg 31%
    16:00 +31°C° 0 mm 2 m/s 672 mmHg 33%
    17:00 +29°C° 0 mm 2 m/s 672 mmHg 40%
    18:00 +26°C° 0 mm 1 m/s 672 mmHg 47%
    19:00 +24°C° 0 mm 1 m/s 672 mmHg 53%
    20:00 +23°C° 0 mm 1 m/s 673 mmHg 50%
    21:00 +23°C° 0 mm 1 m/s 673 mmHg 47%
    22:00 +22°C° 0 mm 1 m/s 673 mmHg 44%
    23:00 +22°C° 0 mm 1 m/s 673 mmHg 43%

    21 Février, Mercredi

    Heure Température Précipitation Vent Pression Humidité
    00:00 +21°C° 0 mm 1 m/s 673 mmHg 41%
    01:00 +21°C° 0 mm 1 m/s 672 mmHg 40%
    02:00 +20°C° 0 mm 1 m/s 672 mmHg 41%
    03:00 +20°C° 0 mm 1 m/s 672 mmHg 42%
    04:00 +20°C° 0 mm 1 m/s 672 mmHg 43%
    05:00 +20°C° 0 mm 1 m/s 673 mmHg 43%
    06:00 +21°C° 0 mm 1 m/s 673 mmHg 43%
    07:00 +21°C° 0 mm 1 m/s 674 mmHg 44%
    08:00 +24°C° 0 mm 1 m/s 675 mmHg 40%
    09:00 +27°C° 0 mm 1 m/s 675 mmHg 36%
    10:00 +30°C° 0 mm 1 m/s 676 mmHg 33%
    11:00 +31°C° 0 mm 2 m/s 675 mmHg 32%
    12:00 +32°C° 0 mm 2 m/s 675 mmHg 31%
    13:00 +34°C° 0 mm 2 m/s 674 mmHg 31%
    14:00 +32°C° 0 mm 2 m/s 673 mmHg 34%
    15:00 +31°C° 0 mm 2 m/s 673 mmHg 37%
    16:00 +30°C° 0 mm 2 m/s 672 mmHg 40%
    17:00 +28°C° 0 mm 2 m/s 672 mmHg 46%
    18:00 +26°C° 0 mm 1 m/s 672 mmHg 52%
    19:00 +24°C° 0 mm 1 m/s 672 mmHg 59%
    20:00 +24°C° 0 mm 1 m/s 673 mmHg 59%
    21:00 +23°C° 0 mm 1 m/s 673 mmHg 60%
    22:00 +22°C° 0 mm 1 m/s 673 mmHg 61%
    23:00 +22°C° 0 mm 1 m/s 673 mmHg 61%

    22 Février, Jeudi

    Heure Température Précipitation Vent Pression Humidité
    00:00 +22°C° 0 mm 1 m/s 673 mmHg 61%
    01:00 +21°C° 0 mm 1 m/s 673 mmHg 61%
    02:00 +21°C° 0 mm 1 m/s 672 mmHg 61%
    03:00 +21°C° 0 mm 1 m/s 672 mmHg 61%
    04:00 +20°C° 0 mm 1 m/s 672 mmHg 61%
    05:00 +21°C° 0 mm 1 m/s 673 mmHg 59%
    06:00 +21°C° 0 mm 1 m/s 673 mmHg 58%
    07:00 +21°C° 0 mm 1 m/s 674 mmHg 57%
    08:00 +24°C° 0 mm 1 m/s 675 mmHg 51%
    09:00 +27°C° 0 mm 1 m/s 676 mmHg 45%
    10:00 +30°C° 0 mm 1 m/s 676 mmHg 39%
    11:00 +30°C° 0 mm 2 m/s 676 mmHg 39%
    12:00 +31°C° 0 mm 2 m/s 675 mmHg 39%
    13:00 +31°C° 0 mm 2 m/s 674 mmHg 40%
    14:00 +31°C° 0,1 mm 2 m/s 673 mmHg 40%
    15:00 +30°C° 0,1 mm 2 m/s 673 mmHg 41%
    16:00 +30°C° 0,1 mm 2 m/s 672 mmHg 41%
    17:00 +28°C° 0 mm 1 m/s 672 mmHg 48%
    18:00 +26°C° 0 mm 1 m/s 672 mmHg 54%
    19:00 +24°C° 0 mm 1 m/s 672 mmHg 61%
    20:00 +23°C° 0 mm 1 m/s 672 mmHg 62%
    21:00 +23°C° 0 mm 1 m/s 673 mmHg 63%
    22:00 +22°C° 0 mm 1 m/s 673 mmHg 64%
    23:00 +22°C° 0 mm 1 m/s 673 mmHg 65%

    23 Février, Vendredi

    Heure Température Précipitation Vent Pression Humidité
    00:00 +22°C° 0 mm 1 m/s 673 mmHg 66%
    01:00 +21°C° 0 mm 1 m/s 672 mmHg 67%
    02:00 +21°C° 0 mm 1 m/s 672 mmHg 67%
    03:00 +21°C° 0 mm 1 m/s 672 mmHg 68%
    04:00 +20°C° 0 mm 1 m/s 672 mmHg 68%
    05:00 +20°C° 0 mm 1 m/s 672 mmHg 67%
    06:00 +21°C° 0 mm 1 m/s 673 mmHg 66%
    07:00 +21°C° 0 mm 1 m/s 673 mmHg 65%
    08:00 +24°C° 0 mm 1 m/s 674 mmHg 55%
    09:00 +27°C° 0 mm 1 m/s 675 mmHg 46%
    10:00 +29°C° 0 mm 1 m/s 675 mmHg 37%
    11:00 +30°C° 0 mm 2 m/s 675 mmHg 35%
    12:00 +31°C° 0 mm 2 m/s 674 mmHg 34%
    13:00 +31°C° 0 mm 2 m/s 674 mmHg 32%
    14:00 +31°C° 0,1 mm 2 m/s 673 mmHg 34%
    15:00 +30°C° 0,1 mm 2 m/s 672 mmHg 35%
    16:00 +30°C° 0,1 mm 2 m/s 672 mmHg 37%
    17:00 +28°C° 0 mm 1 m/s 672 mmHg 43%
    18:00 +25°C° 0 mm 1 m/s 671 mmHg 49%
    19:00 +23°C° 0 mm 1 m/s 671 mmHg 55%
    20:00 +22°C° 0 mm 1 m/s 672 mmHg 54%
    21:00 +22°C° 0 mm 1 m/s 672 mmHg 53%
    22:00 +22°C° 0 mm 1 m/s 672 mmHg 51%
    23:00 +21°C° 0 mm 1 m/s 672 mmHg 50%
    Voir plus